DMSP 5D-2 F11 DEB, 28343

Orbit data source: Space-Track

DMSP 5D-2 F11 DEB, 28343 is space debris in SSO originally from a launch on Thu, 28 Nov 1991 UTC launched from the Air Force Western Test Range (AFWTR). Debris objects in space refer to the collection of defunct objects orbiting the Earth. Examples of debris include non-operational satellites, rocket bodies, and fragments generated from explosions, collisions, or faulty payload assembly.

Loading next visibility...
Identifier
28343, 1991-082BG
Orbit
SSO
Country
Flag of USUS
Related business
Manufacturer
Unknown
Mission
Spacecraft
Bus & Motor
Unknown
Mass
Unknown
Launch date (UTC)
1991-11-28 (35 years ago)
Launch vehicle
Unknown
Launch site
Air Force Western Test Range (AFWTR)
Object type
Payload
Rocket body
Debris
Shape & HBR
Unknown shape, 0.1 m
Radar Cross Section
Medium (>0.1 m² and <1 m²)

Expand to show TLE details & history
Last TLE update: 3 days ago

TLE from 3 days ago
0 DMSP 5D-2 F11 DEB
1 28343U 91082BG  26261.53150987  .00003505  00000-0  11306-2 0  9991
2 28343  98.8859 358.7610 0058544 276.3811  83.0711 14.38882353149136
Epoch: 2026-09-18T12:45Z
TLE epoch observation values (Epoch: 2026-09-18T12:45:22.452Z)
Latitude
0.00001°
Longitude
169.96439°
Altitude
760.326 km
Speed
7.477 km/s
True Right ascension
23h 55m 02s
True Declination
0° 00' 00"
Sunlit
Object was in full shadow at epoch
Visualization orbit readout
Latitude
Unknown
Longitude
Unknown
Altitude
Unknown
Speed
Unknown
Apparent Right ascension
Unknown
Apparent Declination
Unknown
Sunlit
N/A
Visualization observer readout
Local Sidereal Time
05:59:29
Azimuth
Unknown
Elevation
Unknown
Doppler factor
Unknown
Orbital elements
Apogee altitude
801.121 km
Perigee altitude
717.55 km
Semi-major axis
7,137.472 km
Eccentricity
0.00585
Inclination
98.8859°
RAAN
358.761°
Arg. of periapsis
276.3811°
True anomaly
83.73764°
Mean anomaly
83.0711°
Eccentric anomaly
83.40431°
Mean motion
3.59937 °/min
Orbital period
100.02 mins
BSTAR
0.0011306

Documentation

Showing up to 5 results
|